Change the Weather History Date:

Wednesday, December 25, 2013

  Actual Average (KAMA) Record (KAMA)
Temperature  
Mean Temperature 32 °F 36 °F  
Max Temperature 44 °F 49 °F 73 °F (1979)
Min Temperature 20 °F 23 °F 2 °F (1983)
Degree Days  
Heating Degree Days 33 29  
Month to date heating degree days 699  
Since 1 July heating degree days 1543  
Cooling Degree Days 0 0  
Month to date cooling degree days 0  
Year to date cooling degree days 1399  
Moisture  
Dew Point 26 °F    
Average Humidity 75    
Maximum Humidity 92    
Minimum Humidity 39    
Precipitation  
Precipitation 0.00 in 0.03 in 0.44 in (1939)
Month to date precipitation 0.58  
Year to date precipitation 20.23  
Snow  
Snow 0.00 in 0.10 in 4.60 in (1939)
Month to date snowfall 3.1  
Since 1 July snowfall 5.8  
Snow Depth -    
Sea Level Pressure  
Sea Level Pressure 30.38 in    
Wind  
Wind Speed 13 mph (North)    
Max Wind Speed 26 mph    
Max Gust Speed 37 mph    
Visibility 10 miles    
Events      
T = Trace of Precipitation, MM = Missing Value Source: NWS Daily Summary

Daily Weather History Graph

Daily Weather History Graph

Search for Another Location

Airport or City:

Trip Planner

Search our weather history database for the weather conditions in past years. The results will help you decide how hot, cold, wet, or windy it might be!

Date:

Astronomy

Dec. 25, 2013 Rise Set
Actual Time 7:54 AM CST 5:44 PM CST
Civil Twilight 7:26 AM CST 6:12 PM CST
Nautical Twilight 6:55 AM CST 6:44 PM CST
Astronomical Twilight 6:24 AM CST 7:14 PM CST
Moon 12:37 AM CST (12/25) 12:37 PM CST (12/25)
Length of Visible Light 10h 45m
Length of Day
9h 49m
Waning Gibbous, 48% of the Moon is Illuminated
Dec 25
Waning Gibbous
Jan 1
New
Jan 7
First Quarter
Jan 15
Full
Jan 23
Last Quarter

Hourly Weather History & Observations

Time (CST) Temp. Windchill Dew Point Humidity Pressure Visibility Wind Dir Wind Speed Gust Speed Precip Events Conditions
12:15 AM 37.0 °F 25.1 °F 31.1 °F 79% 30.23 in 10.0 mi North 26.5 mph 35.7 mph N/A   Clear
12:35 AM 36.7 °F 25.1 °F 31.1 °F 80% 30.25 in 10.0 mi North 24.2 mph 36.8 mph N/A   Clear
12:55 AM 36.0 °F 25.6 °F 31.1 °F 82% 30.26 in 10.0 mi North 18.4 mph 26.5 mph N/A   Clear
1:15 AM 35.8 °F 25.1 °F 31.1 °F 83% 30.26 in 10.0 mi North 19.6 mph - N/A   Clear
1:35 AM 35.4 °F 24.6 °F 31.1 °F 84% 30.26 in 10.0 mi North 19.6 mph 25.3 mph N/A   Clear
1:55 AM 34.7 °F 24.7 °F 30.9 °F 86% 30.26 in 10.0 mi North 16.1 mph 24.2 mph N/A   Clear
2:15 AM 34.2 °F 24.8 °F 30.7 °F 87% 30.27 in 10.0 mi North 13.8 mph - N/A   Clear
2:35 AM 33.8 °F 24.8 °F 30.6 °F 88% 30.27 in 10.0 mi North 12.7 mph - N/A   Clear
2:55 AM 33.6 °F 23.7 °F 30.7 °F 89% 30.28 in 10.0 mi North 15.0 mph - N/A   Clear
3:15 AM 33.4 °F 24.8 °F 30.7 °F 90% 30.28 in 10.0 mi North 11.5 mph - N/A   Clear
3:35 AM 33.1 °F 23.9 °F 30.7 °F 91% 30.29 in 10.0 mi North 12.7 mph - N/A   Clear
3:55 AM 33.1 °F 24.4 °F 30.9 °F 92% 30.29 in 10.0 mi North 11.5 mph - N/A   Clear
4:15 AM 33.1 °F 24.9 °F 30.7 °F 91% 30.29 in 10.0 mi North 10.4 mph - N/A   Clear
4:35 AM 32.4 °F 24.6 °F 30.2 °F 92% 30.30 in 10.0 mi North 9.2 mph - N/A   Clear
4:55 AM 31.3 °F 24.7 °F 28.9 °F 91% 30.31 in 10.0 mi NNW 6.9 mph - N/A   Clear
5:15 AM 31.1 °F 23.7 °F 28.9 °F 92% 30.31 in 10.0 mi NW 8.1 mph - N/A   Clear
5:35 AM 30.6 °F 23.8 °F 28.6 °F 92% 30.31 in 10.0 mi NW 6.9 mph - N/A   Clear
5:55 AM 31.1 °F 23.7 °F 29.1 °F 92% 30.32 in 10.0 mi NNW 8.1 mph - N/A   Clear
6:15 AM 30.7 °F 23.3 °F 28.4 °F 91% 30.33 in 10.0 mi NNW 8.1 mph - N/A   Clear
6:35 AM 30.2 °F 21.9 °F 27.7 °F 90% 30.33 in 10.0 mi NNW 9.2 mph - N/A   Clear
6:55 AM 30.0 °F 22.4 °F 27.5 °F 90% 30.35 in 10.0 mi NNW 8.1 mph - N/A   Clear
7:15 AM 30.0 °F 21.7 °F 27.5 °F 90% 30.36 in 10.0 mi North 9.2 mph - N/A   Clear
7:35 AM 29.3 °F 20.8 °F 26.6 °F 90% 30.37 in 10.0 mi North 9.2 mph - N/A   Clear
7:55 AM 30.4 °F 25.6 °F 27.9 °F 90% 30.38 in 10.0 mi NNW 4.6 mph - N/A   Mostly Cloudy
8:15 AM 31.1 °F 27.7 °F 28.4 °F 90% 30.39 in 10.0 mi NW 3.5 mph - N/A   Overcast
8:35 AM 30.6 °F - 27.9 °F 90% 30.39 in 10.0 mi Calm Calm - N/A   Overcast
8:55 AM 30.0 °F 24.1 °F 27.7 °F 91% 30.41 in 10.0 mi NNW 5.8 mph - N/A   Overcast
9:15 AM 30.7 °F 27.3 °F 28.0 °F 90% 30.41 in 10.0 mi NNW 3.5 mph - N/A   Mostly Cloudy
9:35 AM 32.0 °F 25.6 °F 29.3 °F 90% 30.42 in 10.0 mi North 6.9 mph - N/A   Scattered Clouds
9:55 AM 34.5 °F 26.7 °F 30.2 °F 84% 30.43 in 10.0 mi North 10.4 mph - N/A   Scattered Clouds
10:15 AM 34.7 °F 25.9 °F 29.7 °F 82% 30.43 in 10.0 mi North 12.7 mph - N/A   Scattered Clouds
10:35 AM 36.0 °F 27.1 °F 29.8 °F 78% 30.44 in 10.0 mi North 13.8 mph - N/A   Scattered Clouds
10:55 AM 36.7 °F 28.4 °F 29.7 °F 76% 30.44 in 10.0 mi North 12.7 mph - N/A   Clear
11:15 AM 37.4 °F 29.3 °F 29.3 °F 73% 30.45 in 10.0 mi North 12.7 mph - N/A   Clear
11:35 AM 38.5 °F 30.3 °F 28.2 °F 67% 30.44 in 10.0 mi North 13.8 mph - N/A   Clear
11:55 AM 39.2 °F 32.0 °F 28.8 °F 66% 30.43 in 10.0 mi North 11.5 mph - N/A   Clear
12:15 PM 40.1 °F 32.7 °F 28.2 °F 63% 30.42 in 10.0 mi North 12.7 mph 16.1 mph N/A   Clear
12:35 PM 40.6 °F 34.8 °F 27.9 °F 60% 30.42 in 10.0 mi NNE 9.2 mph - N/A   Clear
12:55 PM 41.9 °F 34.3 °F 27.7 °F 57% 30.41 in 10.0 mi North 15.0 mph - N/A   Clear
1:15 PM 42.4 °F 35.0 °F 27.3 °F 55% 30.40 in 10.0 mi North 15.0 mph 19.6 mph N/A   Clear
1:35 PM 43.0 °F 35.7 °F 26.6 °F 52% 30.39 in 10.0 mi North 15.0 mph - N/A   Clear
1:55 PM 43.7 °F 37.7 °F 25.3 °F 48% 30.39 in 10.0 mi North 11.5 mph 17.3 mph N/A   Clear
2:15 PM 43.9 °F 38.8 °F 23.7 °F 45% 30.38 in 10.0 mi North 9.2 mph - N/A   Clear
2:35 PM 43.9 °F 37.5 °F 21.9 °F 42% 30.37 in 10.0 mi North 12.7 mph - N/A   Clear
2:55 PM 44.2 °F 38.8 °F 21.9 °F 41% 30.37 in 10.0 mi North 10.4 mph - N/A   Clear
3:15 PM 44.6 °F 38.4 °F 21.0 °F 39% 30.37 in 10.0 mi North 12.7 mph - N/A   Clear
3:35 PM 44.4 °F 39.0 °F 21.7 °F 41% 30.38 in 10.0 mi North 10.4 mph - N/A   Clear
3:55 PM 44.4 °F 39.0 °F 22.5 °F 42% 30.38 in 10.0 mi North 10.4 mph - N/A   Clear
4:15 PM 43.7 °F 38.1 °F 21.4 °F 41% 30.38 in 10.0 mi NNE 10.4 mph - N/A   Clear
4:35 PM 43.0 °F 37.7 °F 22.6 °F 45% 30.39 in 10.0 mi NNE 9.2 mph - N/A   Clear
4:55 PM 42.1 °F 36.6 °F 22.3 °F 45% 30.40 in 10.0 mi NNE 9.2 mph - N/A   Clear
5:15 PM 40.3 °F 34.4 °F 22.1 °F 48% 30.40 in 10.0 mi NNE 9.2 mph - N/A   Clear
5:35 PM 37.4 °F 31.4 °F 22.6 °F 55% 30.40 in 10.0 mi NNE 8.1 mph - N/A   Clear
5:55 PM 33.4 °F 28.1 °F 22.1 °F 63% 30.41 in 10.0 mi NNE 5.8 mph - N/A   Clear
6:15 PM 32.2 °F 28.9 °F 21.9 °F 66% 30.41 in 10.0 mi NE 3.5 mph - N/A   Clear
6:35 PM 33.1 °F 27.7 °F 22.8 °F 66% 30.42 in 10.0 mi NNE 5.8 mph - N/A   Clear
6:55 PM 31.8 °F - 22.1 °F 67% 30.42 in 10.0 mi Calm Calm - N/A   Clear
7:15 PM 29.5 °F 24.5 °F 21.9 °F 73% 30.42 in 10.0 mi North 4.6 mph - N/A   Clear
7:35 PM 30.7 °F - 22.3 °F 71% 30.43 in 10.0 mi Calm Calm - N/A   Clear
7:55 PM 27.5 °F - 20.1 °F 74% 30.43 in 10.0 mi Calm Calm - N/A   Clear
8:15 PM 28.8 °F - 21.7 °F 75% 30.43 in 10.0 mi Calm Calm - N/A   Clear
8:35 PM 24.8 °F 20.5 °F 20.3 °F 83% 30.43 in 10.0 mi West 3.5 mph - N/A   Clear
8:55 PM 25.3 °F 19.7 °F 21.2 °F 84% 30.43 in 10.0 mi West 4.6 mph - N/A   Clear
9:15 PM 24.1 °F 18.2 °F 19.9 °F 84% 30.43 in 10.0 mi WSW 4.6 mph - N/A   Clear
9:35 PM 23.0 °F 15.8 °F 19.4 °F 86% 30.44 in 10.0 mi West 5.8 mph - N/A   Clear
9:55 PM 22.1 °F 14.7 °F 18.5 °F 86% 30.44 in 10.0 mi West 5.8 mph - N/A   Clear
10:15 PM 21.7 °F 14.3 °F 18.3 °F 87% 30.44 in 10.0 mi West 5.8 mph - N/A   Clear
10:35 PM 20.8 °F 11.2 °F 17.6 °F 87% 30.43 in 10.0 mi West 8.1 mph - N/A   Clear
10:55 PM 21.9 °F 14.5 °F 18.5 °F 87% 30.43 in 10.0 mi West 5.8 mph - N/A   Clear
11:15 PM 20.8 °F 12.1 °F 17.2 °F 86% 30.43 in 10.0 mi West 6.9 mph - N/A   Clear
11:35 PM 20.3 °F 11.5 °F 17.2 °F 88% 30.43 in 10.0 mi WSW 6.9 mph - N/A   Clear
11:55 PM 20.3 °F 10.6 °F 16.7 °F 86% 30.42 in 10.0 mi WSW 8.1 mph - N/A   Clear